Regional Weather Roundup
Issued by NWS Newport/Morehead, NC

Current Version | Previous Version | Graphics & Text | Print | Product List | Glossary Off
Versions: 1 2 3 4 5 6 7 8 9 10 11 12 13 14 15 16 17 18 19 20 21 22 23 24 25 26 27 28 29 30 31 32 33 34 35 36 37 38 39 40 41 42 43 44 45 46 47 48 49 50

000
ASUS42 KMHX 260813
RWRMHX
WEATHER ROUNDUP FOR EASTERN NORTH CAROLINA
NATIONAL WEATHER SERVICE NEWPORT/MOREHEAD CITY NC
400 AM EDT SUN MAR 26 2017

NOTE: "FAIR" INDICATES FEW OR NO CLOUDS BELOW 12,000 FEET
WITH NO SIGNIFICANT WEATHER AND/OR OBSTRUCTIONS TO VISIBILITY

NCZ015>017-031-032-045>047-102-103-260900-
NORTH COAST

CITY           SKY/WX    TMP DP  RH WIND       PRES   REMARKS
EDENTON        CLOUDY    56  52  88 CALM      30.24R
ELIZABETH CITY MOCLDY    53  50  89 CALM      30.23S
KITTY HAWK     NOT AVBL
MANTEO         MOCLDY    54  53  95 CALM      30.23F

$$

NCZ045>047-081-094-103-104-260900-
CENTRAL COAST

CITY           SKY/WX    TMP DP  RH WIND       PRES   REMARKS
FRISCO         MOCLDY    60  55  83 CALM      30.23F HAZE

$$

NCZ095-097-098-100-101-260900-
SOUTHERN COAST

CITY           SKY/WX    TMP DP  RH WIND       PRES   REMARKS
BEAUFORT       CLOUDY    57  55  93 SE5       30.22F
CEDAR ISLAND   NOT AVBL
JACKSONVILLE   PTCLDY    55  55 100 CALM      30.21S
PINEY ISLAND   CLOUDY   N/A N/A N/A S5        30.22F
WILMINGTON     CLOUDY    56  54  93 CALM      30.20F


$$

NCZ011>013-027>030-043-044-078>080-089-090>093-098-260900-
COASTAL PLAIN

CITY           SKY/WX    TMP DP  RH WIND       PRES   REMARKS
AHOSKIE          N/A     51  50  95 CALM      30.22S
CLINTON        CLEAR     54  53  99 CALM      30.21S
ELIZABETHTOWN  PTCLDY    53  53 100 CALM      30.20F
GOLDSBORO      PTCLDY    56  55  99 CALM      30.20S
GREENVILLE     PTCLDY    55  54  94 CALM      30.23S
HAVELOCK       NOT AVBL
KENANSVILLE    MOCLDY    50  50 100 CALM      30.22S FOG
KINSTON        PTCLDY    55  53  95 CALM      30.22S
NEW BERN       FOG       51  51 100 CALM      30.23R VSB 1/2
RICHLANDS      CLOUDY    50  49  96 CALM      30.22S
ROCKY MOUNT    PTCLDY    51  51 100 CALM      30.21F
WASHINGTON     CLOUDY    56  54  91 CALM      30.23S
WHITEVILLE     MOCLDY    56  55  94 CALM      30.19F

$$

AMZ130-135-150-152-154-156-158-170-250-252-270-ANZ085-086-088-633-658-670-260900-
MARINE OBSERVATIONS

STATION/POSITION TIME  TEMP    WIND        PRES    WAVE   SWELL
                       AIR SEA DIR/SP/G            HT/PER HT/PER
                 (UTC) (F)     (DEG/KT/KT) (MB)    (FT/S) (FT/S)
CHESAPEAKE LIGHT NOT AVBL
64 E VA BEACH    0750   53 49  240/  6/  8 1023.4    3/ 6   2/ 6
DUCK             0748   59 47  210/  8/  9 1022.9
2 E DUCK         0800      49                N/A     1/ 9
OREGON INLET     0736   57 59  210/  4/  4 1023.6
13E OREGON INLT  0748      50                N/A     2/ 7   2/ 7
HATTERAS CG      0748   61 58  240/  2/  3 1023.3
DIAMOND BUOY     0750   69 76  170/ 16/ 17 1023.7    3/ 5   2/ 7
CAPE LOOKOUT     0800   65     160/ 10/ 11 1023.0
BEAUFORT LAB     0748   60 55  150/  4/  5 1022.4
30 SE NEW RVR IN 0708   67     170/ 12/ 14 1023.4
30 SE NEW RVR IN 0743      65                N/A     3/ 8
27 SE WRIGHTSVLE 0708   66 64  180/  8/ 10 1022.7
5 SE WRIGHTSVLE  0708   62 58  180/ 10/ 12 1022.7
225 S CAPE HAT   0750   67 72  100/ 14/ 17 1023.5    5/ 8   3/ 8
41 SE CHARLESTON 0750   70 71  150/ 14/ 17 1021.6    5/ 8   3/ 8

$$




USA.gov is the U.S. government's official web portal to all federal, state and local government web resources and services.